SCP
-0 0 0 0 0 0 0 0 0 0 0 0 0 0 0 0 0 0 0 0 0 0 -0 -0 -0 -0 0 0 -0 0 -0 0 0 -0 -0 -0 -0 -0 -0 -0 -0 0 -0 0 0 0 0
-0 -0 0 0 0 0 0 0 0 0 0 0 0 0 0 0 0 0 0 0 0 0 -0 0 0 0 0 0 0 0 0 0 0 -0 -0 -0 -0 -0 -0 -0 -0 -0 0 -0 0 0 0
0 -0 -0 0 0 0 0 0 0 0 0 0 0 0 0 0 0 0 0 0 0 0 0 0 0 0 0 0 0 0 0 0 0 0 0 0 -0 -0 -0 0 0 0 -0 -0 -0 0 0
-0 -0 -0 -0 0 0 0 0 0 0 0 0 0 0 0 0 0 -0 -0 -0 0 0 0 0 0 0 0 0 0 0 0 0 0 0 0 0 0 0 -0 -0 0 0 0 0 -0 0 0
0 -0 -0 -0 -0 -0 0 0 0 0 0 0 0 0 0 0 0 0 -0 -0 0 0 0 0 0 0 0 0 0 0 0 0 0 0 0 0 0 0 -0 0 0 0 0 -0 0 0 0
0 0 0 0 0 0 -0 0 0 0 0 0 0 0 0 0 0 0 -0 0 0 0 0 0 0 0 0 0 0 0 0 0 0 0 0 0 0 0 0 -0 0 0 0 -0 0 0 -0
0 0 0 0 0 0 0 0 -0 -0 0 0 0 0 -0 -0 -0 -0 0 0 0 0 0 0 0 0 0 0 0 0 0 0 0 0 0 0 0 -0 0 -0 0 0 0 0 0 0 0
-0 -0 0 0 0 0 0 0 -0 -0 -0 -0 -0 -0 -0 -0 -0 -0 0 0 0 0 0 0 0 0 0 0 0 0 0 0 0 0 0 0 0 0 0 0 0 0 0 0 0 0 0
0 -0 0 -0 -0 0 0 0 0 -0 -0 -0 -0 -0 -0 -0 -0 0 0 0 0 -0 0 0 0 0 0 0 0 0 0 0 0 0 0 0 0 0 0 -0 0 0 0 0 0 0 0
0 -0 -0 0 -0 -0 0 0 -0 -0 -0 -0 -0 -0 -0 -0 0 0 0 0 0 -0 0 0 0 0 0 0 0 0 0 0 0 0 0 0 0 0 0 0 0 0 0 0 0 0 0
-0 0 0 -0 0 -0 0 0 -0 -0 -0 -0 -0 -0 -0 -0 0 0 0 0 0 0 0 0 0 0 0 0 0 0 0 0 0 0 0 0 0 0 0 0 0 0 0 0 0 0 0
-0 -0 0 0 0 0 0 0 -0 -0 -0 -0 -0 -0 -0 0 0 0 0 0 -0 0 0 0 0 0 0 0 0 0 0 0 0 0 0 0 0 0 0 0 0 0 0 0 0 0 0
-0 -0 -0 0 0 -0 -0 -0 -0 -0 -0 -0 -0 -0 0 0 0 0 0 0 0 0 0 0 0 0 0 0 0 0 0 0 0 0 0 0 0 0 0 0 0 0 0 0 0 0 0
-0 -0 -0 -0 -0 -0 -0 -0 -0 -0 -0 -0 -0 -0 0 0 -0 0 0 0 0 0 0 0 0 0 0 0 0 0 0 0 0 0 0 0 0 0 0 0 0 0 0 0 0 0 0
-0 -0 -0 -0 -0 -0 -0 -0 -0 -0 -0 -0 -0 0 0 0 -0 -0 0 0 0 0 0 0 0 0 0 0 0 0 0 0 0 0 0 0 0 0 0 0 0 0 0 0 0 0 0
0 0 -0 -0 -0 -0 0 -0 -0 -0 -0 -0 0 0 0 0 0 0 0 0 0 0 0 0 0 0 0 0 0 0 0 0 0 0 0 0 0 0 0 0 0 0 0 0 0 0 0
0 0 -0 -0 -0 -0 0 -0 0 -0 -0 0 0 0 0 0 0 0 0 0 0 0 0 0 0 0 0 0 0 0 0 0 0 0 0 0 0 0 0 0 0 0 0 0 0 0 0
0 0 -0 -0 -0 -0 0 0 0 0 -0 0 0 0 0 0 0 0 0 0 0 0 0 0 0 0 0 0 0 0 0 0 0 0 0 0 0 0 0 0 0 0 0 0 0 0 0
0 0 -0 -0 -0 -0 0 0 0 0 0 0 0 0 0 0 0 0 0 0 0 0 0 0 0 0 0 0 0 0 0 0 0 0 0 0 0 0 0 0 0 0 0 0 0 0 0
0 0 -0 -0 -0 -0 0 0 0 0 0 0 0 0 0 0 0 0 0 0 0 0 0 0 0 0 0 0 0 0 0 0 0 0 0 0 0 0 0 0 0 0 0 0 0 0 0
0 0 -0 -0 -0 -0 -0 0 0 0 0 0 0 0 0 0 0 0 0 0 0 0 0 0 0 0 0 0 0 0 0 0 0 0 0 0 0 0 0 0 0 0 0 0 0 0 0
0 0 0 -0 -0 -0 -0 0 0 0 0 0 0 0 0 0 0 0 0 0 0 0 0 0 0 0 0 0 0 0 0 0 0 0 0 0 0 0 0 0 0 0 0 0 0 0 0
0 0 0 0 -0 -0 -0 -0 0 0 0 0 0 0 0 0 0 0 0 0 0 0 0 0 0 0 0 0 0 0 0 0 0 0 0 0 0 0 0 0 0 0 0 0 0 0 0
0 0 0 0 -0 -0 0 0 -0 0 0 0 0 0 0 0 0 0 0 0 0 0 0 0 0 0 0 0 0 0 0 0 0 0 0 0 0 0 0 0 0 0 0 0 0 0 0
0 0 0 0 0 -0 -0 0 0 0 0 0 0 0 0 0 0 0 0 0 0 0 0 0 0 0 0 0 0 0 0 0 0 0 0 0 0 0 0 0 0 0 0 0 0 0 0
0 0 0 0 0 0 0 0 0 0 0 0 0 0 0 0 0 0 0 0 0 0 0 0 0 0 0 0 0 0 0 0 0 0 0 0 0 0 0 0 0 0 0 0 0 0 0
0 0 0 0 0 0 0 0 0 -0 0 0 0 0 0 0 0 0 0 0 0 0 0 0 0 0 0 0 0 0 0 0 0 0 0 0 0 0 0 0 0 0 0 0 0 0 0
0 0 0 0 0 0 0 0 0 -0 0 0 0 0 0 0 0 0 0 0 0 0 0 0 0 0 0 0 0 0 0 0 0 0 0 0 0 0 0 0 0 0 0 0 0 0 0
0 0 0 0 0 0 0 0 0 0 0 0 0 0 0 0 0 0 0 0 0 0 0 0 0 0 0 0 0 0 0 0 0 0 0 0 0 0 0 0 0 0 0 0 0 -0 0
Wind_Speed_500mb
23 24 26 26 27 28 29 29 31 32 33 33 33 33 34 35 34 33 33 33 32 30 28 26 24 20 16 11 14 14 9 13 20 23 16 10 8 3 4 10 11 3 16 9 11 20 19
24 25 26 28 30 31 32 32 32 33 33 35 36 36 36 36 36 34 33 33 34 31 27 25 21 18 13 10 12 18 15 10 11 22 22 15 7 3 3 6 7 8 10 8 11 12 12
26 27 29 30 31 32 33 34 34 34 35 36 35 35 37 38 38 36 33 34 34 30 25 22 17 18 21 27 10 11 18 13 17 21 23 18 9 5 4 2 13 7 2 10 12 5 4
26 28 30 31 32 33 34 34 33 33 34 35 35 35 36 36 38 35 31 33 31 26 18 15 13 15 15 9 10 19 15 14 18 20 17 14 10 4 2 3 5 5 5 8 4 6 6
30 31 31 33 34 35 35 35 33 33 34 34 35 36 35 35 36 31 28 29 24 17 15 13 13 10 14 3 5 6 21 16 18 16 14 13 10 5 3 3 1 11 6 12 9 13 5
31 32 34 35 36 37 37 37 36 35 35 34 35 36 35 35 33 26 22 20 11 15 11 10 17 10 8 3 5 5 22 19 12 12 12 8 5 6 4 6 5 3 3 7 12 2 17
33 35 36 37 39 38 38 38 37 36 35 35 35 36 35 33 28 22 10 7 9 6 10 12 5 7 11 9 6 11 20 21 15 8 8 5 13 21 21 9 9 11 4 7 11 1 9
34 35 38 40 39 38 38 38 38 37 36 36 36 36 33 30 25 9 8 8 13 11 16 22 30 44 44 33 9 8 23 13 8 9 5 5 21 11 9 11 12 8 4 6 8 15 6
37 39 41 41 41 40 40 38 38 36 36 35 35 35 31 27 15 8 9 9 17 18 7 12 7 9 9 19 9 8 26 18 7 11 10 15 3 14 11 14 15 8 13 9 7 12 12
37 41 44 44 42 40 39 37 37 36 35 34 34 33 30 21 4 12 9 13 26 6 4 1 1 2 11 11 5 12 27 13 5 15 16 10 7 12 15 16 16 24 6 8 9 7 7
37 40 43 43 43 42 39 36 35 35 34 34 34 32 27 20 16 5 6 14 15 4 3 11 5 8 15 7 9 7 20 10 14 13 11 10 12 17 14 10 14 11 4 7 7 6 6
38 41 43 44 43 41 40 38 36 35 33 33 32 31 26 20 14 7 6 9 2 5 5 6 6 3 9 1 4 9 8 9 11 9 2 6 4 6 16 11 18 11 6 3 3 1 11
40 43 45 46 45 42 39 38 38 35 34 32 30 29 29 16 3 6 3 4 3 3 4 7 5 3 4 9 5 7 15 12 7 8 10 4 14 6 7 10 5 9 13 13 14 11 12
38 42 44 47 49 47 43 37 36 37 37 33 29 27 22 14 12 11 9 4 4 3 4 3 5 2 7 12 7 5 15 18 6 5 5 5 7 18 16 22 12 18 20 13 17 16 10
36 41 43 45 47 48 47 40 34 33 35 36 28 16 5 6 17 20 7 5 2 5 6 14 7 4 3 4 4 7 15 16 18 25 13 9 7 5 15 11 21 12 13 5 6 3 5
33 39 42 44 45 47 46 42 38 35 34 33 22 7 15 6 24 22 2 2 4 7 6 3 5 5 5 4 5 6 10 6 9 27 19 10 6 2 2 10 8 11 20 10 4 11 13
33 37 41 43 44 44 44 40 38 34 33 24 8 9 14 28 20 3 3 5 7 11 9 4 3 3 3 4 3 4 4 4 6 6 15 13 8 5 4 15 20 8 8 3 3 4 15
31 34 39 42 43 43 42 37 35 34 29 17 6 4 18 8 4 3 4 4 3 6 2 5 4 5 3 3 2 5 3 4 1 16 16 14 4 14 22 2 4 3 9 17 9 11 3
30 32 35 39 42 41 41 36 31 31 31 21 7 7 14 15 4 3 1 3 6 4 4 2 4 7 1 4 3 3 4 4 6 12 11 18 9 7 7 8 4 12 10 10 2 1 13
32 31 33 36 39 41 39 34 27 24 23 15 4 4 3 2 4 2 4 3 7 5 7 5 5 3 3 4 4 1 3 3 3 3 1 16 6 8 12 5 2 11 14 17 18 8 6
32 33 31 33 35 37 38 33 25 19 17 9 7 4 2 5 5 3 4 3 6 5 2 5 3 10 7 3 1 4 4 6 2 6 3 8 5 6 12 17 13 16 7 17 24 9 12
31 34 31 30 32 34 35 33 24 15 11 6 5 4 1 1 1 5 3 4 2 6 4 4 8 17 5 4 4 5 7 2 2 2 2 1 3 4 4 7 12 14 14 16 24 11 20
31 34 32 29 29 29 31 31 27 13 7 3 4 2 2 1 3 7 8 5 4 7 5 5 12 9 4 4 24 27 24 19 11 6 2 4 5 4 7 6 4 12 25 23 12 13 13
31 33 31 28 27 27 29 29 28 16 7 5 5 3 2 3 5 5 7 1 5 5 7 12 9 5 5 35 9 4 5 8 12 1 2 3 2 3 7 4 12 5 5 8 16 19 20
34 34 30 27 26 24 25 28 27 20 9 6 10 8 1 5 6 9 13 9 9 9 7 12 12 5 30 14 6 6 7 7 7 4 3 2 2 6 10 15 9 16 8 9 14 14 20
40 35 33 29 28 23 23 24 23 22 8 10 14 11 6 3 6 3 4 6 6 5 6 12 19 22 9 3 3 7 8 3 5 5 4 6 1 6 2 15 26 19 6 7 12 13 21
44 39 35 32 29 25 21 22 20 18 11 13 19 15 7 7 7 11 9 6 7 5 6 8 11 6 5 3 8 8 7 0 6 7 6 5 4 13 14 13 12 5 8 5 12 10 42
48 43 37 30 30 27 22 21 16 14 10 12 16 17 15 10 21 16 15 15 7 7 5 5 6 2 3 5 6 6 8 9 6 3 5 6 6 7 5 8 17 6 7 7 17 29 33
51 46 41 32 33 25 23 21 15 13 9 13 10 19 20 22 18 21 27 37 38 22 2 4 4 5 2 2 3 1 4 4 4 6 4 7 7 2 10 7 9 10 19 29 21 31 20
Wind_Direction_500mb
337 337 336 335 333 331 329 328 327 326 324 322 321 321 323 323 321 319 320 320 316 311 311 310 316 312 310 283 246 174 133 114 148 163 175 162 98 103 19 327 335 279 323 4 87 119 115
337 337 334 332 330 328 327 326 325 325 325 323 320 319 318 320 319 315 316 318 314 308 307 303 306 300 293 259 233 222 220 198 153 161 164 163 144 140 136 299 334 353 34 47 66 99 115
336 335 334 333 330 327 323 321 322 323 324 325 323 320 320 321 319 314 316 317 310 307 302 293 292 286 275 254 232 211 200 189 162 161 159 160 151 168 177 314 331 312 307 89 63 58 100
350 347 343 339 337 335 330 322 319 320 322 325 325 324 323 322 320 316 319 314 310 306 296 281 277 284 260 260 250 232 193 172 160 163 163 167 162 172 197 327 22 26 16 14 46 185 93
356 352 347 342 338 337 337 334 327 322 322 323 326 326 326 325 321 320 322 313 308 303 297 271 269 273 272 325 108 149 176 159 150 152 163 164 169 142 124 88 51 20 40 3 7 211 139
352 350 349 345 340 338 334 332 332 329 324 323 325 326 329 330 326 327 330 323 300 295 293 273 255 280 256 176 3 177 169 162 145 145 135 160 108 173 124 219 248 95 11 331 330 314 221
348 346 344 343 340 337 335 332 329 329 328 325 323 325 332 334 332 331 339 326 319 295 296 235 234 262 296 1 51 139 158 155 155 101 175 39 204 213 221 194 135 137 144 319 311 313 237
343 342 341 339 337 335 333 331 330 327 327 326 325 325 332 336 332 341 8 78 59 337 308 291 257 255 259 272 287 155 162 151 144 181 135 160 223 206 189 179 161 173 250 287 286 313 264
342 342 340 338 335 333 333 331 329 328 328 326 324 324 331 337 335 7 111 51 353 339 275 298 274 263 230 200 209 193 170 154 116 158 174 207 159 167 181 186 193 204 255 281 287 311 269
342 342 341 339 337 335 334 334 332 329 327 326 325 325 329 341 337 350 169 348 340 326 318 337 189 157 167 164 182 175 168 148 108 181 163 215 175 187 181 198 214 246 189 260 286 317 304
342 342 343 343 341 338 337 336 334 331 328 326 324 324 326 326 319 340 227 330 337 4 119 357 85 133 160 185 126 160 173 151 155 157 187 188 196 197 207 212 198 248 158 291 300 282 245
342 343 345 346 345 342 339 338 337 335 330 324 322 321 319 314 309 243 219 320 20 262 89 60 108 116 171 314 88 105 152 141 126 135 194 233 241 222 234 193 194 135 156 88 103 171 238
341 343 344 346 346 345 343 339 337 336 331 326 323 317 308 300 240 194 223 150 257 224 335 28 24 11 204 179 168 142 156 164 169 170 209 238 228 230 196 188 160 186 191 217 221 215 244
339 342 343 345 345 345 344 342 339 337 332 330 327 315 299 279 219 197 157 160 224 34 342 344 353 239 194 162 181 112 157 198 182 120 146 215 211 194 181 218 202 196 222 227 227 227 243
338 342 343 344 345 344 342 342 341 339 334 334 337 331 343 214 185 174 156 186 286 207 323 334 317 135 131 119 182 178 192 203 206 189 208 178 254 207 212 168 199 162 206 271 189 103 263
336 340 343 343 344 345 343 342 342 344 341 339 349 96 23 151 152 149 136 213 239 227 315 287 30 8 120 61 148 203 179 170 219 200 215 190 264 201 107 169 71 235 141 174 228 201 238
332 339 342 342 343 346 345 343 342 344 344 347 13 87 69 116 134 103 183 217 271 266 245 291 356 350 22 75 148 182 149 166 221 148 196 165 233 161 209 202 188 162 199 87 176 254 251
327 335 340 342 342 345 348 347 345 346 354 359 70 99 145 44 107 26 163 209 279 290 304 267 260 257 280 329 201 196 176 254 254 156 170 187 198 235 249 143 3 297 239 194 228 205 229
322 329 336 340 341 345 349 349 350 352 359 16 66 89 169 27 127 119 258 285 267 266 266 273 266 241 168 288 223 228 232 113 105 169 168 174 203 224 224 170 131 233 207 215 161 189 207
322 323 331 338 340 342 349 353 350 354 358 13 66 128 95 99 94 63 21 19 331 262 258 259 289 308 314 250 224 313 281 148 14 130 161 163 149 235 261 237 207 194 198 199 215 193 208
315 319 324 332 337 339 345 355 350 349 357 19 39 75 120 163 161 224 266 310 323 3 239 343 140 359 271 281 298 224 252 306 136 100 116 209 231 217 272 252 239 249 210 190 229 197 227
304 313 315 325 332 336 340 349 350 340 350 43 52 29 48 136 258 195 175 189 342 336 284 61 17 353 98 88 3 286 352 239 314 355 107 275 197 216 277 346 241 234 203 201 223 229 251
289 303 309 316 324 329 334 342 349 332 325 88 88 63 38 161 183 196 173 172 171 349 220 259 341 326 254 342 307 274 253 278 295 294 342 297 205 216 268 347 266 237 217 204 198 218 242
275 289 298 306 316 322 328 334 342 331 274 220 168 126 331 183 224 217 165 222 237 325 285 298 329 277 353 319 311 135 173 226 222 161 230 211 223 257 258 215 238 253 324 254 226 248 230
262 276 285 296 305 313 319 323 330 327 268 208 176 149 186 257 256 253 229 234 278 283 262 278 296 262 316 309 236 203 185 197 188 37 131 244 184 240 244 231 306 266 201 183 205 261 233
256 266 276 284 294 300 306 310 318 322 276 197 185 179 165 279 205 229 212 221 242 234 260 251 279 305 332 310 257 229 217 229 195 182 76 115 161 237 249 257 252 264 138 131 162 261 220
250 255 264 272 285 289 292 296 304 309 285 197 186 184 196 261 274 196 215 208 175 207 255 300 332 323 3 218 233 212 214 211 222 219 193 196 207 239 235 256 276 8 75 186 219 315 335
242 250 258 264 277 279 279 280 285 284 273 191 191 191 210 257 274 248 236 220 204 208 231 353 259 173 273 230 219 193 212 189 207 197 199 217 221 217 187 232 257 80 112 252 325 314 321
240 245 248 251 261 262 266 268 260 258 189 174 205 210 230 249 262 268 250 239 231 228 263 289 315 292 298 263 211 244 209 177 193 222 188 227 222 284 236 248 70 347 302 297 296 306 306
Wind_Speed_850mb
23 24 26 26 27 28 29 29 31 32 33 33 33 33 34 35 34 33 33 33 32 30 28 26 24 20 16 11 14 14 9 13 20 23 16 10 8 3 4 10 11 3 16 9 11 20 19
24 25 26 28 30 31 32 32 32 33 33 35 36 36 36 36 36 34 33 33 34 31 27 25 21 18 13 10 12 18 15 10 11 22 22 15 7 3 3 6 7 8 10 8 11 12 12
26 27 29 30 31 32 33 34 34 34 35 36 35 35 37 38 38 36 33 34 34 30 25 22 17 18 21 27 10 11 18 13 17 21 23 18 9 5 4 2 13 7 2 10 12 5 4
26 28 30 31 32 33 34 34 33 33 34 35 35 35 36 36 38 35 31 33 31 26 18 15 13 15 15 9 10 19 15 14 18 20 17 14 10 4 2 3 5 5 5 8 4 6 6
30 31 31 33 34 35 35 35 33 33 34 34 35 36 35 35 36 31 28 29 24 17 15 13 13 10 14 3 5 6 21 16 18 16 14 13 10 5 3 3 1 11 6 12 9 13 5
31 32 34 35 36 37 37 37 36 35 35 34 35 36 35 35 33 26 22 20 11 15 11 10 17 10 8 3 5 5 22 19 12 12 12 8 5 6 4 6 5 3 3 7 12 2 17
33 35 36 37 39 38 38 38 37 36 35 35 35 36 35 33 28 22 10 7 9 6 10 12 5 7 11 9 6 11 20 21 15 8 8 5 13 21 21 9 9 11 4 7 11 1 9
34 35 38 40 39 38 38 38 38 37 36 36 36 36 33 30 25 9 8 8 13 11 16 22 30 44 44 33 9 8 23 13 8 9 5 5 21 11 9 11 12 8 4 6 8 15 6
37 39 41 41 41 40 40 38 38 36 36 35 35 35 31 27 15 8 9 9 17 18 7 12 7 9 9 19 9 8 26 18 7 11 10 15 3 14 11 14 15 8 13 9 7 12 12
37 41 44 44 42 40 39 37 37 36 35 34 34 33 30 21 4 12 9 13 26 6 4 1 1 2 11 11 5 12 27 13 5 15 16 10 7 12 15 16 16 24 6 8 9 7 7
37 40 43 43 43 42 39 36 35 35 34 34 34 32 27 20 16 5 6 14 15 4 3 11 5 8 15 7 9 7 20 10 14 13 11 10 12 17 14 10 14 11 4 7 7 6 6
38 41 43 44 43 41 40 38 36 35 33 33 32 31 26 20 14 7 6 9 2 5 5 6 6 3 9 1 4 9 8 9 11 9 2 6 4 6 16 11 18 11 6 3 3 1 11
40 43 45 46 45 42 39 38 38 35 34 32 30 29 29 16 3 6 3 4 3 3 4 7 5 3 4 9 5 7 15 12 7 8 10 4 14 6 7 10 5 9 13 13 14 11 12
38 42 44 47 49 47 43 37 36 37 37 33 29 27 22 14 12 11 9 4 4 3 4 3 5 2 7 12 7 5 15 18 6 5 5 5 7 18 16 22 12 18 20 13 17 16 10
36 41 43 45 47 48 47 40 34 33 35 36 28 16 5 6 17 20 7 5 2 5 6 14 7 4 3 4 4 7 15 16 18 25 13 9 7 5 15 11 21 12 13 5 6 3 5
33 39 42 44 45 47 46 42 38 35 34 33 22 7 15 6 24 22 2 2 4 7 6 3 5 5 5 4 5 6 10 6 9 27 19 10 6 2 2 10 8 11 20 10 4 11 13
33 37 41 43 44 44 44 40 38 34 33 24 8 9 14 28 20 3 3 5 7 11 9 4 3 3 3 4 3 4 4 4 6 6 15 13 8 5 4 15 20 8 8 3 3 4 15
31 34 39 42 43 43 42 37 35 34 29 17 6 4 18 8 4 3 4 4 3 6 2 5 4 5 3 3 2 5 3 4 1 16 16 14 4 14 22 2 4 3 9 17 9 11 3
30 32 35 39 42 41 41 36 31 31 31 21 7 7 14 15 4 3 1 3 6 4 4 2 4 7 1 4 3 3 4 4 6 12 11 18 9 7 7 8 4 12 10 10 2 1 13
32 31 33 36 39 41 39 34 27 24 23 15 4 4 3 2 4 2 4 3 7 5 7 5 5 3 3 4 4 1 3 3 3 3 1 16 6 8 12 5 2 11 14 17 18 8 6
32 33 31 33 35 37 38 33 25 19 17 9 7 4 2 5 5 3 4 3 6 5 2 5 3 10 7 3 1 4 4 6 2 6 3 8 5 6 12 17 13 16 7 17 24 9 12
31 34 31 30 32 34 35 33 24 15 11 6 5 4 1 1 1 5 3 4 2 6 4 4 8 17 5 4 4 5 7 2 2 2 2 1 3 4 4 7 12 14 14 16 24 11 20
31 34 32 29 29 29 31 31 27 13 7 3 4 2 2 1 3 7 8 5 4 7 5 5 12 9 4 4 24 27 24 19 11 6 2 4 5 4 7 6 4 12 25 23 12 13 13
31 33 31 28 27 27 29 29 28 16 7 5 5 3 2 3 5 5 7 1 5 5 7 12 9 5 5 35 9 4 5 8 12 1 2 3 2 3 7 4 12 5 5 8 16 19 20
34 34 30 27 26 24 25 28 27 20 9 6 10 8 1 5 6 9 13 9 9 9 7 12 12 5 30 14 6 6 7 7 7 4 3 2 2 6 10 15 9 16 8 9 14 14 20
40 35 33 29 28 23 23 24 23 22 8 10 14 11 6 3 6 3 4 6 6 5 6 12 19 22 9 3 3 7 8 3 5 5 4 6 1 6 2 15 26 19 6 7 12 13 21
44 39 35 32 29 25 21 22 20 18 11 13 19 15 7 7 7 11 9 6 7 5 6 8 11 6 5 3 8 8 7 0 6 7 6 5 4 13 14 13 12 5 8 5 12 10 42
48 43 37 30 30 27 22 21 16 14 10 12 16 17 15 10 21 16 15 15 7 7 5 5 6 2 3 5 6 6 8 9 6 3 5 6 6 7 5 8 17 6 7 7 17 29 33
51 46 41 32 33 25 23 21 15 13 9 13 10 19 20 22 18 21 27 37 38 22 2 4 4 5 2 2 3 1 4 4 4 6 4 7 7 2 10 7 9 10 19 29 21 31 20
Wind_Direction_850mb
337 337 336 335 333 331 329 328 327 326 324 322 321 321 323 323 321 319 320 320 316 311 311 310 316 312 310 283 246 174 133 114 148 163 175 162 98 103 19 327 335 279 323 4 87 119 115
337 337 334 332 330 328 327 326 325 325 325 323 320 319 318 320 319 315 316 318 314 308 307 303 306 300 293 259 233 222 220 198 153 161 164 163 144 140 136 299 334 353 34 47 66 99 115
336 335 334 333 330 327 323 321 322 323 324 325 323 320 320 321 319 314 316 317 310 307 302 293 292 286 275 254 232 211 200 189 162 161 159 160 151 168 177 314 331 312 307 89 63 58 100
350 347 343 339 337 335 330 322 319 320 322 325 325 324 323 322 320 316 319 314 310 306 296 281 277 284 260 260 250 232 193 172 160 163 163 167 162 172 197 327 22 26 16 14 46 185 93
356 352 347 342 338 337 337 334 327 322 322 323 326 326 326 325 321 320 322 313 308 303 297 271 269 273 272 325 108 149 176 159 150 152 163 164 169 142 124 88 51 20 40 3 7 211 139
352 350 349 345 340 338 334 332 332 329 324 323 325 326 329 330 326 327 330 323 300 295 293 273 255 280 256 176 3 177 169 162 145 145 135 160 108 173 124 219 248 95 11 331 330 314 221
348 346 344 343 340 337 335 332 329 329 328 325 323 325 332 334 332 331 339 326 319 295 296 235 234 262 296 1 51 139 158 155 155 101 175 39 204 213 221 194 135 137 144 319 311 313 237
343 342 341 339 337 335 333 331 330 327 327 326 325 325 332 336 332 341 8 78 59 337 308 291 257 255 259 272 287 155 162 151 144 181 135 160 223 206 189 179 161 173 250 287 286 313 264
342 342 340 338 335 333 333 331 329 328 328 326 324 324 331 337 335 7 111 51 353 339 275 298 274 263 230 200 209 193 170 154 116 158 174 207 159 167 181 186 193 204 255 281 287 311 269
342 342 341 339 337 335 334 334 332 329 327 326 325 325 329 341 337 350 169 348 340 326 318 337 189 157 167 164 182 175 168 148 108 181 163 215 175 187 181 198 214 246 189 260 286 317 304
342 342 343 343 341 338 337 336 334 331 328 326 324 324 326 326 319 340 227 330 337 4 119 357 85 133 160 185 126 160 173 151 155 157 187 188 196 197 207 212 198 248 158 291 300 282 245
342 343 345 346 345 342 339 338 337 335 330 324 322 321 319 314 309 243 219 320 20 262 89 60 108 116 171 314 88 105 152 141 126 135 194 233 241 222 234 193 194 135 156 88 103 171 238
341 343 344 346 346 345 343 339 337 336 331 326 323 317 308 300 240 194 223 150 257 224 335 28 24 11 204 179 168 142 156 164 169 170 209 238 228 230 196 188 160 186 191 217 221 215 244
339 342 343 345 345 345 344 342 339 337 332 330 327 315 299 279 219 197 157 160 224 34 342 344 353 239 194 162 181 112 157 198 182 120 146 215 211 194 181 218 202 196 222 227 227 227 243
338 342 343 344 345 344 342 342 341 339 334 334 337 331 343 214 185 174 156 186 286 207 323 334 317 135 131 119 182 178 192 203 206 189 208 178 254 207 212 168 199 162 206 271 189 103 263
336 340 343 343 344 345 343 342 342 344 341 339 349 96 23 151 152 149 136 213 239 227 315 287 30 8 120 61 148 203 179 170 219 200 215 190 264 201 107 169 71 235 141 174 228 201 238
332 339 342 342 343 346 345 343 342 344 344 347 13 87 69 116 134 103 183 217 271 266 245 291 356 350 22 75 148 182 149 166 221 148 196 165 233 161 209 202 188 162 199 87 176 254 251
327 335 340 342 342 345 348 347 345 346 354 359 70 99 145 44 107 26 163 209 279 290 304 267 260 257 280 329 201 196 176 254 254 156 170 187 198 235 249 143 3 297 239 194 228 205 229
322 329 336 340 341 345 349 349 350 352 359 16 66 89 169 27 127 119 258 285 267 266 266 273 266 241 168 288 223 228 232 113 105 169 168 174 203 224 224 170 131 233 207 215 161 189 207
322 323 331 338 340 342 349 353 350 354 358 13 66 128 95 99 94 63 21 19 331 262 258 259 289 308 314 250 224 313 281 148 14 130 161 163 149 235 261 237 207 194 198 199 215 193 208
315 319 324 332 337 339 345 355 350 349 357 19 39 75 120 163 161 224 266 310 323 3 239 343 140 359 271 281 298 224 252 306 136 100 116 209 231 217 272 252 239 249 210 190 229 197 227
304 313 315 325 332 336 340 349 350 340 350 43 52 29 48 136 258 195 175 189 342 336 284 61 17 353 98 88 3 286 352 239 314 355 107 275 197 216 277 346 241 234 203 201 223 229 251
289 303 309 316 324 329 334 342 349 332 325 88 88 63 38 161 183 196 173 172 171 349 220 259 341 326 254 342 307 274 253 278 295 294 342 297 205 216 268 347 266 237 217 204 198 218 242
275 289 298 306 316 322 328 334 342 331 274 220 168 126 331 183 224 217 165 222 237 325 285 298 329 277 353 319 311 135 173 226 222 161 230 211 223 257 258 215 238 253 324 254 226 248 230
262 276 285 296 305 313 319 323 330 327 268 208 176 149 186 257 256 253 229 234 278 283 262 278 296 262 316 309 236 203 185 197 188 37 131 244 184 240 244 231 306 266 201 183 205 261 233
256 266 276 284 294 300 306 310 318 322 276 197 185 179 165 279 205 229 212 221 242 234 260 251 279 305 332 310 257 229 217 229 195 182 76 115 161 237 249 257 252 264 138 131 162 261 220
250 255 264 272 285 289 292 296 304 309 285 197 186 184 196 261 274 196 215 208 175 207 255 300 332 323 3 218 233 212 214 211 222 219 193 196 207 239 235 256 276 8 75 186 219 315 335
242 250 258 264 277 279 279 280 285 284 273 191 191 191 210 257 274 248 236 220 204 208 231 353 259 173 273 230 219 193 212 189 207 197 199 217 221 217 187 232 257 80 112 252 325 314 321
240 245 248 251 261 262 266 268 260 258 189 174 205 210 230 249 262 268 250 239 231 228 263 289 315 292 298 263 211 244 209 177 193 222 188 227 222 284 236 248 70 347 302 297 296 306 306